Change the Weather History Date:

Wednesday, October 2, 2013

  Actual Average (KOFK) Record (KOFK)
Temperature  
Mean Temperature 64 °F 57 °F  
Max Temperature 84 °F 70 °F 93 °F (1992)
Min Temperature 45 °F 44 °F 28 °F (1999)
Degree Days  
Heating Degree Days 0 9  
Month to date heating degree days 18  
Since 1 July heating degree days 160  
Cooling Degree Days 0 1  
Month to date cooling degree days 2  
Year to date cooling degree days 908  
Growing Degree Days 14 (Base 50)    
Moisture  
Dew Point 54 °F    
Average Humidity 72    
Maximum Humidity 93    
Minimum Humidity 39    
Precipitation  
Precipitation 0.98 in 0.08 in 1.17 in (2013)
Month to date precipitation 0.17  
Year to date precipitation 23.39  
Snow  
Snow 0.00 in 0.00 in - ()
Month to date snowfall 0.0  
Since 1 July snowfall T  
Snow Depth -    
Sea Level Pressure  
Sea Level Pressure 29.90 in    
Wind  
Wind Speed 4 mph (SSE)    
Max Wind Speed 30 mph    
Max Gust Speed 46 mph    
Visibility 10 miles    
Events Rain , Thunderstorm    
T = Trace of Precipitation, MM = Missing Value Source: NWS Daily Summary

Daily Weather History Graph

Daily Weather History Graph

Search for Another Location

Airport or City:

Trip Planner

Search our weather history database for the weather conditions in past years. The results will help you decide how hot, cold, wet, or windy it might be!

Date:

Astronomy

Oct. 02, 2013 Rise Set
Actual Time 7:26 AM CDT 7:07 PM CDT
Civil Twilight 6:58 AM CDT 7:35 PM CDT
Nautical Twilight 6:25 AM CDT 8:07 PM CDT
Astronomical Twilight 5:53 AM CDT 8:40 PM CDT
Moon 4:58 AM CDT (10/2) 5:45 PM CDT (10/2)
Length of Visible Light 12h 36m
Length of Day
11h 40m
Waning Crescent, 6% of the Moon is Illuminated
Oct 2
Waning Crescent
Oct 4
New
Oct 11
First Quarter
Oct 18
Full
Oct 26
Last Quarter

Hourly Weather History & Observations

Time (CDT) Temp. Heat Index Dew Point Humidity Pressure Visibility Wind Dir Wind Speed Gust Speed Precip Events Conditions
12:15 AM 47.3 °F - 43.5 °F 87% 29.98 in 10.0 mi Calm Calm - N/A   Clear
12:35 AM 46.9 °F - 43.5 °F 88% 29.98 in 10.0 mi Calm Calm - N/A   Clear
12:55 AM 46.4 °F - 43.0 °F 88% 29.98 in 10.0 mi Calm Calm - N/A   Clear
1:15 AM 45.9 °F - 43.2 °F 90% 29.98 in 10.0 mi Calm Calm - N/A   Clear
1:35 AM 45.7 °F - 42.8 °F 90% 29.98 in 10.0 mi Calm Calm - N/A   Clear
1:55 AM 45.7 °F - 42.8 °F 90% 29.98 in 10.0 mi Calm Calm - N/A   Clear
2:15 AM 45.9 °F - 42.8 °F 89% 29.99 in 10.0 mi Calm Calm - N/A   Clear
2:35 AM 46.0 °F - 43.0 °F 89% 29.99 in 10.0 mi Calm Calm - N/A   Clear
2:55 AM 45.5 °F - 42.8 °F 90% 29.98 in 10.0 mi Calm Calm - N/A   Clear
3:15 AM 45.7 °F - 43.2 °F 91% 29.98 in 10.0 mi Calm Calm - N/A   Clear
3:35 AM 45.7 °F - 42.8 °F 90% 29.97 in 10.0 mi Calm Calm - N/A   Clear
3:55 AM 46.4 °F - 43.3 °F 89% 29.97 in 10.0 mi Calm Calm - N/A   Scattered Clouds
4:15 AM 46.6 °F - 43.9 °F 90% 29.96 in 10.0 mi Calm Calm - N/A   Scattered Clouds
4:35 AM 46.6 °F - 44.1 °F 91% 29.96 in 10.0 mi Calm Calm - N/A   Clear
4:55 AM 47.1 °F - 44.6 °F 91% 29.96 in 10.0 mi Calm Calm - N/A   Scattered Clouds
5:15 AM 48.4 °F - 46.4 °F 93% 29.96 in 10.0 mi Calm Calm - N/A   Mostly Cloudy
5:35 AM 50.4 °F - 48.2 °F 92% 29.96 in 10.0 mi Calm Calm - N/A   Overcast
5:55 AM 55.4 °F - 44.1 °F 66% 29.95 in 10.0 mi Calm Calm - N/A   Scattered Clouds
6:15 AM 56.1 °F - 43.5 °F 63% 29.94 in 10.0 mi Calm Calm - N/A   Clear
6:35 AM 58.6 °F - 42.3 °F 55% 29.94 in 10.0 mi East 3.5 mph - N/A   Scattered Clouds
6:55 AM 57.6 °F - 43.7 °F 60% 29.94 in 10.0 mi Calm Calm - N/A   Clear
7:15 AM 57.4 °F - 43.5 °F 60% 29.94 in 10.0 mi Calm Calm - N/A   Clear
7:35 AM 57.4 °F - 45.7 °F 65% 29.94 in 10.0 mi Calm Calm - N/A   Clear
7:55 AM 58.1 °F - 46.9 °F 66% 29.94 in 10.0 mi Calm Calm - N/A   Clear
8:15 AM 58.6 °F - 47.5 °F 66% 29.94 in 10.0 mi Calm Calm - N/A   Clear
8:35 AM 59.9 °F - 48.2 °F 65% 29.94 in 10.0 mi Calm Calm - N/A   Clear
8:55 AM 61.0 °F - 50.4 °F 68% 29.94 in 10.0 mi Calm Calm - N/A   Scattered Clouds
9:15 AM 61.3 °F - 51.4 °F 70% 29.93 in 10.0 mi SE 3.5 mph - N/A   Scattered Clouds
9:35 AM 63.0 °F - 53.1 °F 70% 29.93 in 10.0 mi SE 4.6 mph - N/A   Scattered Clouds
9:55 AM 66.4 °F - 55.4 °F 68% 29.93 in 10.0 mi SSE 8.1 mph - N/A   Mostly Cloudy
10:15 AM 68.5 °F - 57.2 °F 67% 29.93 in 10.0 mi SSE 9.2 mph - N/A   Overcast
10:35 AM 71.2 °F - 59.7 °F 67% 29.92 in 10.0 mi SE 15.0 mph - N/A   Overcast
10:55 AM 74.8 °F - 60.3 °F 60% 29.91 in 10.0 mi SSE 12.7 mph - N/A   Scattered Clouds
11:15 AM 77.4 °F - 60.1 °F 55% 29.91 in 10.0 mi SSE 13.8 mph 18.4 mph N/A   Scattered Clouds
11:35 AM 76.5 °F - 60.1 °F 57% 29.91 in 10.0 mi South 13.8 mph - N/A   Mostly Cloudy
11:55 AM 77.5 °F - 59.9 °F 54% 29.91 in 10.0 mi South 13.8 mph - N/A   Mostly Cloudy
12:15 PM 77.5 °F - 59.7 °F 54% 29.91 in 10.0 mi South 11.5 mph 18.4 mph N/A   Mostly Cloudy
12:35 PM 77.0 °F - 60.1 °F 56% 29.90 in 10.0 mi South 11.5 mph - N/A   Mostly Cloudy
12:55 PM 79.2 °F - 59.9 °F 52% 29.90 in 10.0 mi South 15.0 mph 20.7 mph N/A   Mostly Cloudy
1:15 PM 81.1 °F 81.5 °F 59.4 °F 47% 29.89 in 10.0 mi South 12.7 mph - N/A   Mostly Cloudy
1:35 PM 80.8 °F 81.2 °F 58.8 °F 47% 29.88 in 10.0 mi South 15.0 mph 18.4 mph N/A Thunderstorm Mostly Cloudy
1:55 PM 81.5 °F 81.6 °F 58.5 °F 45% 29.86 in 10.0 mi SSE 12.7 mph 18.4 mph N/A Thunderstorm Thunderstorm
2:15 PM 82.0 °F 82.0 °F 58.1 °F 44% 29.86 in 10.0 mi South 12.7 mph 19.6 mph N/A   Mostly Cloudy
2:35 PM 82.4 °F 82.0 °F 57.4 °F 42% 29.85 in 10.0 mi SSW 17.3 mph - N/A   Mostly Cloudy
2:55 PM 83.3 °F 82.8 °F 57.6 °F 41% 29.84 in 10.0 mi South 10.4 mph 16.1 mph N/A   Mostly Cloudy
3:15 PM 83.3 °F 82.8 °F 57.2 °F 41% 29.83 in 10.0 mi South 11.5 mph 19.6 mph N/A   Overcast
3:35 PM 84.0 °F 83.2 °F 56.5 °F 39% 29.83 in 10.0 mi South 12.7 mph 17.3 mph N/A Thunderstorm Mostly Cloudy
3:55 PM 83.3 °F 82.6 °F 56.7 °F 40% 29.82 in 10.0 mi South 12.7 mph - N/A Thunderstorm Thunderstorm
4:15 PM 82.0 °F 81.6 °F 56.1 °F 41% 29.82 in 10.0 mi South 10.4 mph - N/A Thunderstorm Overcast
4:35 PM 73.2 °F - 63.0 °F 70% 29.84 in 10.0 mi SE 8.1 mph - N/A Rain , Thunderstorm Light Thunderstorms and Rain
4:55 PM 68.4 °F - 57.0 °F 67% 29.83 in 5.0 mi Calm Calm - 0.17 in Rain , Thunderstorm Thunderstorms and Rain
5:15 PM 66.9 °F - 60.6 °F 80% 29.83 in 10.0 mi SE 4.6 mph - N/A Thunderstorm Thunderstorm
5:35 PM 67.6 °F - 62.1 °F 82% 29.81 in 10.0 mi Calm Calm - N/A Thunderstorm Scattered Clouds
5:55 PM 68.2 °F - 62.4 °F 82% 29.82 in 10.0 mi Calm Calm - N/A Rain Light Rain
6:15 PM 67.1 °F - 62.8 °F 86% 29.83 in 10.0 mi WNW 6.9 mph - N/A Rain Rain
6:35 PM 68.2 °F - 63.1 °F 84% 29.83 in 10.0 mi NNW 4.6 mph - 0.04 in Rain , Thunderstorm Light Thunderstorms and Rain
6:55 PM 70.7 °F - 57.2 °F 62% 29.82 in 3.0 mi North 29.9 mph 46.0 mph 0.11 in Rain , Thunderstorm Heavy Thunderstorms and Rain
7:15 PM 70.0 °F - 55.6 °F 60% 29.89 in 10.0 mi West 23.0 mph 31.1 mph N/A Rain , Thunderstorm Light Thunderstorms and Rain
7:35 PM 62.8 °F - 57.9 °F 84% 29.91 in 2.5 mi SW 9.2 mph 35.7 mph 0.23 in Rain , Thunderstorm Heavy Thunderstorms and Rain
7:55 PM 62.6 °F - 58.5 °F 86% 29.86 in 5.0 mi East 8.1 mph - 0.46 in Rain , Thunderstorm Thunderstorms and Rain
8:15 PM 63.7 °F - 58.3 °F 83% 29.85 in 10.0 mi ESE 5.8 mph 11.5 mph 0.01 in Rain , Thunderstorm Light Thunderstorms and Rain
8:35 PM 64.4 °F - 58.3 °F 80% 29.84 in 10.0 mi ESE 9.2 mph - 0.02 in Rain , Thunderstorm Light Thunderstorms and Rain
8:55 PM 64.6 °F - 58.5 °F 80% 29.85 in 10.0 mi ESE 5.8 mph - 0.02 in Rain , Thunderstorm Light Thunderstorms and Rain
9:15 PM 63.7 °F - 59.0 °F 85% 29.84 in 10.0 mi Calm Calm - N/A Rain Light Rain
9:35 PM 63.1 °F - 59.7 °F 89% 29.84 in 10.0 mi Calm Calm - N/A Rain , Thunderstorm Light Thunderstorms and Rain
9:55 PM 63.0 °F - 60.6 °F 92% 29.87 in 7.0 mi SW 20.7 mph 24.2 mph 0.04 in Rain , Thunderstorm Thunderstorms and Rain
10:15 PM 64.4 °F - 61.0 °F 89% 29.86 in 10.0 mi South 11.5 mph - 0.02 in Rain , Thunderstorm Light Thunderstorms and Rain
10:35 PM 64.0 °F - 61.7 °F 92% 29.86 in 10.0 mi SSE 17.3 mph - 0.03 in Rain , Thunderstorm Light Thunderstorms and Rain
10:55 PM 64.8 °F - 62.4 °F 92% 29.85 in 10.0 mi South 13.8 mph - 0.05 in Rain , Thunderstorm Light Thunderstorms and Rain
11:15 PM 65.3 °F - 61.9 °F 89% 29.85 in 7.0 mi SSE 13.8 mph 19.6 mph 0.04 in Rain , Thunderstorm Rain
11:35 PM 65.3 °F - 60.6 °F 85% 29.84 in 10.0 mi SE 13.8 mph - 0.08 in Rain , Thunderstorm Rain
11:55 PM 64.4 °F - 60.6 °F 88% 29.85 in 7.0 mi South 12.7 mph - 0.13 in Rain Rain